Lapse_Rate
4.2 4.7 5.0 3.5 6.4 6.5 6.5 6.5 6.5 6.5 6.5 6.6 7.0 6.7 6.5 6.9 6.5 6.5 4.4 5.1 5.1 4.6 6.1 6.1 6.1 6.0 5.9 5.7 5.8 5.9 5.7 5.7 5.7 5.9 5.9 6.1 6.0 6.2 6.1 6.1 6.1 5.9 6.2 6.0 5.9 6.2 6.4 6.3 6.4
4.0 4.8 3.5 4.3 6.5 6.5 6.5 6.5 6.5 6.5 6.9 7.0 6.8 6.8 6.7 6.5 7.7 5.6 5.8 5.7 4.8 4.5 4.9 5.4 5.9 5.9 5.9 5.9 6.0 6.2 6.2 6.1 5.7 5.8 6.1 5.9 6.3 6.1 6.1 6.2 6.3 6.1 6.1 5.9 5.8 6.1 6.1 6.2 6.4
4.8 6.0 4.6 6.5 6.5 6.5 6.5 6.5 6.5 6.7 7.4 7.1 6.9 6.8 7.2 6.9 7.8 7.1 5.6 5.9 5.1 4.3 4.8 5.5 5.7 5.9 6.1 6.3 6.2 6.2 6.2 6.0 5.8 5.9 6.0 5.9 6.1 6.1 6.1 6.3 6.4 6.4 6.3 5.7 5.9 5.8 5.8 6.4 6.2
4.4 4.0 4.6 6.5 6.4 6.5 6.5 6.5 6.6 6.5 7.1 7.3 7.1 6.6 7.5 8.1 7.3 6.2 6.6 6.1 4.8 4.3 4.8 5.9 6.1 6.1 6.3 6.4 6.4 6.3 6.3 6.1 5.9 6.1 5.9 6.0 5.9 5.9 6.1 6.7 6.3 6.2 6.0 5.8 5.5 5.5 5.6 6.0 5.7
3.6 4.7 6.5 6.5 6.5 6.5 6.5 6.8 6.7 6.5 6.7 7.0 7.1 6.7 6.7 6.7 6.6 6.5 6.8 5.8 4.2 3.9 5.0 5.9 6.3 6.3 6.3 6.2 6.1 6.1 6.1 5.9 6.0 6.0 5.8 5.8 5.8 6.0 6.3 6.5 6.4 5.9 5.8 5.6 5.2 5.2 5.3 5.3 5.6
4.9 5.2 6.5 6.5 6.5 6.5 6.6 7.0 6.7 6.7 7.0 7.1 7.0 6.8 6.6 6.3 6.4 5.9 5.5 5.1 5.2 4.3 4.9 6.0 6.4 6.2 6.0 6.0 6.0 6.0 6.1 6.1 5.7 5.9 5.9 5.7 5.9 5.8 6.1 6.4 6.4 5.7 5.5 5.1 5.1 5.2 5.1 5.4 5.9
6.5 6.5 6.5 6.5 6.5 6.5 6.5 7.3 6.7 6.7 6.8 6.8 7.7 6.5 6.9 6.7 6.0 6.7 6.4 5.5 5.6 4.9 4.5 4.6 5.4 6.3 6.1 6.0 6.3 6.3 6.2 6.1 6.2 5.9 5.8 5.7 5.8 5.7 6.0 6.1 6.1 5.6 5.0 5.2 5.4 5.2 5.1 5.4 5.7
5.0 6.3 6.5 6.5 6.5 6.5 6.6 7.0 7.3 6.9 6.7 8.0 6.7 6.5 6.1 6.2 6.4 6.3 5.5 5.2 5.5 5.7 5.2 4.6 4.8 5.3 5.3 6.1 6.4 6.4 6.4 6.4 6.1 5.8 6.0 6.0 5.9 5.7 6.1 5.8 5.6 5.4 5.2 5.5 5.4 5.2 5.2 5.0 5.1
4.6 6.5 6.5 6.5 6.5 6.5 6.9 6.5 7.4 7.7 7.4 7.5 7.7 7.1 6.8 7.0 6.9 5.8 5.3 5.3 5.1 6.0 5.3 4.7 5.0 4.7 4.9 5.6 6.3 6.7 6.6 6.5 6.4 6.0 5.7 5.5 5.3 5.5 5.5 5.2 5.5 5.3 5.4 5.3 5.2 5.1 5.2 5.4 5.4
6.4 6.5 6.5 6.6 6.5 6.5 6.7 6.7 6.7 6.8 6.9 7.1 7.2 6.9 7.5 7.5 6.7 5.6 5.8 5.2 4.5 4.3 4.6 4.6 4.8 4.4 4.4 5.3 5.0 5.1 6.0 5.2 4.5 4.4 4.7 4.2 4.8 4.8 5.0 5.1 5.5 5.4 5.5 5.2 5.1 5.2 5.2 5.4 5.1
6.5 6.5 6.5 6.6 6.9 6.0 6.4 6.7 7.3 6.6 6.5 6.6 6.8 7.1 7.3 7.1 6.4 6.1 6.0 5.5 5.0 4.8 5.6 4.6 4.3 4.8 4.1 4.1 3.9 3.9 4.4 4.5 4.5 4.3 4.3 4.3 4.4 4.3 4.5 4.1 4.2 4.1 4.2 4.3 4.2 4.6 4.5 4.2 4.3
6.5 6.8 6.8 6.7 7.1 6.9 6.7 5.2 6.7 6.6 6.6 6.2 5.7 6.1 7.1 7.1 6.5 6.0 5.9 5.8 5.2 5.1 5.7 5.0 4.7 4.1 4.1 3.8 3.1 3.5 4.0 4.1 4.0 4.4 4.6 4.1 3.1 3.2 3.2 3.2 3.5 3.4 3.8 3.7 3.5 3.4 3.6 3.5 3.8
6.5 6.5 7.0 7.0 7.0 6.8 6.2 6.3 6.6 6.6 7.3 7.2 6.4 6.6 6.1 6.2 6.4 6.3 5.7 5.9 5.0 4.4 4.8 4.6 4.5 3.7 3.3 2.8 2.9 3.4 4.0 4.3 4.4 4.9 4.9 4.3 3.8 3.4 4.3 3.6 3.7 3.6 4.0 3.3 2.9 3.4 3.3 2.6 3.8
5.9 6.7 6.7 6.7 6.5 7.0 6.7 6.7 7.0 6.7 7.7 7.5 7.2 6.4 5.9 6.1 6.4 6.0 5.9 5.7 4.7 5.0 4.5 4.3 4.6 3.8 3.5 2.9 3.1 3.8 4.2 4.3 4.6 4.7 5.1 5.1 5.3 4.9 3.5 3.3 3.8 3.7 4.1 3.6 2.9 2.5 2.3 3.6 3.9
6.2 6.5 6.5 6.6 6.2 6.6 7.1 6.5 6.5 5.8 7.4 7.2 7.6 6.4 6.6 6.4 7.0 5.6 5.5 5.5 4.1 4.1 3.8 3.4 3.9 4.2 3.4 3.6 3.7 3.5 3.7 4.6 4.2 4.7 5.3 5.7 5.4 5.2 4.3 3.1 2.7 3.4 4.3 4.1 3.8 4.6 4.3 3.1 3.3
6.5 6.6 6.5 6.5 6.5 6.3 6.0 6.5 6.5 5.2 5.1 6.7 6.9 7.2 6.1 6.7 6.6 6.0 5.3 5.2 4.4 4.2 3.9 3.6 5.4 4.0 3.4 3.3 4.2 4.3 4.3 4.5 4.4 4.7 4.8 4.8 4.8 4.8 3.3 2.5 2.6 3.5 3.1 4.0 2.3 2.9 3.5 2.6 2.5
6.5 6.5 6.6 6.5 6.6 6.5 6.5 6.5 6.3 4.3 5.7 5.0 5.5 6.4 5.9 6.2 6.7 6.4 5.4 4.7 4.6 4.6 4.2 3.6 3.4 2.9 3.6 3.5 3.6 3.6 4.6 4.5 4.8 4.4 4.6 4.6 4.8 5.2 4.2 1.6 3.2 3.4 2.7 2.4 1.4 2.4 2.5 2.7 3.4
6.5 6.5 6.5 6.5 6.5 6.5 6.5 6.5 6.5 6.0 6.6 5.8 5.1 6.6 5.5 6.3 5.9 5.7 5.7 5.4 5.1 5.0 4.7 4.3 3.6 2.8 2.5 3.2 3.0 2.8 3.5 3.5 4.3 3.8 4.4 5.0 4.9 4.8 4.3 3.1 3.8 3.7 2.3 1.3 1.3 2.4 3.0 2.6 1.9
6.5 6.5 6.5 6.5 6.5 6.5 6.5 6.5 6.5 6.2 5.3 6.4 5.4 6.0 5.9 5.6 6.1 6.8 6.5 6.1 5.4 4.6 4.7 4.3 3.7 3.4 3.1 2.2 2.4 3.1 4.0 3.9 3.5 3.6 4.8 4.6 4.8 4.4 4.0 3.4 4.1 3.7 3.1 3.3 3.5 3.2 4.3 3.9 3.2
6.5 6.5 6.5 6.5 6.5 6.5 6.5 6.5 6.5 6.4 6.4 6.3 5.7 6.2 5.9 5.6 4.6 5.5 5.4 5.2 4.6 4.5 4.2 4.5 4.1 3.7 3.6 2.7 2.6 3.4 3.7 3.5 3.8 3.9 4.4 4.9 5.1 4.9 4.1 3.9 4.2 4.4 3.7 3.6 4.0 3.6 2.8 3.4 3.1
6.5 6.5 6.5 6.5 6.5 6.5 6.5 6.5 6.5 6.4 5.7 5.9 5.2 5.9 6.3 5.5 5.1 5.1 4.7 4.2 4.5 4.4 4.1 4.0 4.1 3.8 3.8 2.9 2.7 3.5 3.8 3.5 3.7 3.6 3.7 3.8 5.3 5.1 4.8 4.6 4.0 4.5 4.1 4.0 3.9 3.9 3.7 3.1 3.3
6.5 6.5 6.5 6.5 6.5 6.5 6.5 6.5 6.5 6.5 6.5 6.5 6.2 5.7 6.5 6.3 5.9 6.1 4.3 4.4 4.2 4.1 4.6 4.3 4.1 4.1 4.2 2.3 3.6 3.8 3.9 4.0 3.4 3.1 3.1 4.4 5.2 5.3 5.2 5.1 4.2 4.0 3.6 4.5 3.9 4.3 3.5 3.2 3.7
6.6 6.5 6.5 6.5 6.5 6.5 6.5 6.5 6.5 6.5 6.5 6.5 6.3 6.2 6.2 6.2 5.8 6.1 5.5 4.5 5.0 5.0 4.5 4.4 3.9 4.4 5.0 4.1 3.4 4.1 3.8 4.1 3.3 2.7 3.4 3.2 3.4 4.4 5.3 4.9 4.0 3.6 3.1 3.9 4.4 4.4 3.6 3.0 3.1
6.5 6.5 6.5 6.5 6.5 6.5 6.5 6.5 6.5 6.5 6.5 6.5 6.3 6.6 6.1 5.3 5.8 5.5 6.1 5.4 5.1 5.7 4.9 4.2 3.8 3.9 4.1 4.1 3.1 3.3 3.9 3.7 3.3 3.0 2.6 2.2 2.8 3.3 4.5 5.3 4.4 4.2 3.7 3.5 3.6 4.2 4.4 3.8 3.5
6.5 6.5 6.5 6.5 6.5 6.5 6.5 6.5 6.5 6.5 6.5 6.5 6.5 6.4 6.8 5.8 6.0 5.8 5.0 6.1 4.7 5.2 5.4 3.9 3.6 3.8 3.8 3.7 3.2 3.1 3.3 3.4 3.4 3.3 2.9 2.4 2.7 3.0 3.7 4.1 4.1 3.5 3.7 3.8 3.4 3.4 4.0 4.1 3.7
6.5 6.5 6.5 6.5 6.5 6.5 6.5 6.5 6.5 6.5 6.3 6.1 6.5 6.5 6.7 5.2 5.6 5.6 4.9 5.0 4.6 4.7 5.0 4.4 3.2 3.8 3.8 3.6 3.5 3.1 3.4 3.1 2.5 3.4 3.0 2.6 2.6 2.7 3.3 3.5 3.5 3.7 4.1 3.9 3.4 3.1 3.4 3.8 3.5
6.5 6.5 6.5 6.5 6.5 6.5 6.5 6.5 6.5 6.5 6.5 6.0 6.0 5.0 5.8 6.2 5.0 5.2 3.5 4.3 4.5 4.8 4.4 4.3 3.6 3.5 3.8 3.7 3.7 3.8 3.7 3.2 3.2 3.2 3.2 3.2 2.8 3.2 2.6 3.0 2.9 3.5 3.6 3.6 3.5 3.1 3.4 3.3 3.6
6.5 6.6 6.5 6.5 6.5 6.5 6.5 6.6 6.5 6.5 6.5 6.5 6.5 4.7 4.0 5.1 3.2 2.1 3.1 3.3 4.5 4.7 4.5 4.2 3.8 3.4 3.3 4.0 3.5 3.7 4.3 3.6 2.9 2.5 2.9 3.2 3.5 2.8 3.2 2.6 3.4 3.2 3.6 3.5 3.4 3.2 3.4 3.5 3.2
6.5 6.5 6.5 6.5 6.5 6.5 6.5 6.5 6.5 6.5 6.5 6.5 6.4 3.3 3.8 2.1 2.6 2.2 1.9 2.5 1.8 3.4 5.2 3.9 3.7 3.6 3.3 4.0 3.8 3.8 3.5 3.9 3.4 3.5 2.9 2.9 3.2 2.9 3.2 2.8 3.2 3.1 3.4 3.2 3.3 3.3 3.6 3.3 3.3
6.5 6.6 6.5 6.5 6.5 6.5 6.5 6.5 6.4 6.5 6.5 5.8 5.6 3.7 2.6 2.9 2.0 1.3 1.7 2.1 2.1 3.0 4.3 4.6 3.3 3.7 3.3 3.6 3.5 3.7 3.4 3.6 3.7 4.4 3.8 3.0 3.3 2.9 3.4 3.1 3.1 3.3 3.4 3.3 3.2 3.6 5.0 3.5 3.5
Wind_Speed
9 6 2 2 4 3 5 1 6 6 5 6 12 11 10 11 1 3 9 12 13 8 10 12 14 15 15 16 17 17 17 15 13 12 14 13 13 13 13 13 11 11 11 11 10 10 11 11 12
7 4 3 2 4 3 4 1 10 13 14 17 14 9 9 4 6 13 9 13 15 12 11 11 13 14 15 16 17 16 16 15 13 11 14 13 13 14 15 13 13 12 12 10 9 9 10 8 9
7 5 3 3 2 2 4 7 8 18 16 7 6 11 4 6 12 8 14 16 14 9 12 13 14 14 15 15 16 16 16 15 13 11 13 13 13 14 14 13 13 13 12 10 9 6 7 6 7
3 4 4 3 2 4 4 11 6 17 14 11 11 8 5 5 4 9 17 15 12 9 12 15 16 16 15 15 16 16 15 14 12 13 13 14 14 14 14 14 15 14 12 11 8 6 5 3 3
3 3 3 2 4 6 9 12 10 14 9 10 6 4 3 4 16 19 13 14 13 8 12 15 16 16 15 14 15 15 14 12 12 13 13 14 14 15 14 14 14 13 11 9 6 3 1 1 1
3 3 2 4 5 6 9 5 14 15 17 16 12 8 3 9 15 14 13 12 12 10 9 15 15 15 14 13 13 13 13 12 12 13 13 13 14 16 14 13 12 11 10 8 6 2 3 3 4
2 2 2 3 4 4 5 3 6 15 13 7 12 7 6 4 8 13 13 9 9 10 10 8 11 13 13 12 12 13 13 12 13 15 14 15 15 16 14 12 10 9 10 7 4 2 4 6 7
4 3 1 4 5 6 4 7 16 17 6 16 16 6 7 5 10 12 10 9 7 7 8 7 7 9 10 10 12 12 13 14 14 15 15 15 15 15 12 10 9 8 7 6 4 3 5 7 10
2 3 2 3 7 5 4 4 13 13 18 4 3 8 14 15 13 13 10 8 7 6 6 8 7 8 8 8 11 14 15 14 14 14 12 12 11 12 12 9 9 7 6 6 5 6 8 9 11
3 3 5 4 8 4 2 5 3 15 14 14 15 15 16 15 14 15 12 10 8 7 6 6 7 8 9 6 8 9 12 10 9 8 7 9 7 6 9 8 8 6 7 8 8 8 10 12 11
5 5 9 14 8 6 4 11 7 19 10 22 22 21 17 16 12 12 11 11 10 11 7 7 5 10 9 7 8 6 8 9 6 4 3 3 2 2 6 7 6 7 8 9 8 9 13 12 9
6 13 5 4 6 1 4 11 9 1 9 19 22 23 19 16 14 13 12 12 11 10 9 7 7 7 8 9 7 8 6 7 5 3 2 4 4 4 8 7 8 6 9 9 8 9 15 13 14
7 10 11 4 5 6 15 17 10 1 20 20 20 21 20 17 13 11 12 10 10 10 11 10 7 5 7 5 6 7 7 7 6 5 4 4 6 3 5 1 3 6 9 9 8 6 8 10 14
6 11 9 3 11 12 14 9 3 3 21 21 21 20 18 18 17 11 11 13 9 10 11 10 10 7 8 4 6 5 7 7 7 5 5 7 5 3 4 3 5 7 3 7 10 7 5 5 8
4 3 5 1 2 7 15 1 11 4 19 21 21 19 18 19 17 19 17 16 13 10 11 10 11 10 7 5 7 5 5 5 2 2 4 4 5 2 6 5 4 3 7 4 6 4 4 3 5
4 4 2 3 1 2 2 6 8 7 8 16 16 15 19 18 21 17 17 15 12 11 11 10 10 11 8 6 6 5 6 7 7 7 7 7 6 9 9 3 1 1 4 1 2 2 3 4 3
5 4 4 5 5 6 5 7 6 6 9 8 8 12 12 16 18 17 18 17 16 14 13 12 8 11 11 7 6 6 9 7 9 11 11 8 8 6 6 7 3 1 2 1 1 3 1 2 2
6 4 3 5 5 7 7 8 4 6 4 7 7 10 12 18 20 18 18 17 16 15 14 13 10 9 8 6 4 3 4 3 9 9 11 9 7 8 3 5 1 5 1 2 1 2 2 1 2
4 3 3 3 5 5 9 6 9 6 12 10 7 11 14 16 14 19 19 18 16 14 15 13 12 11 8 3 4 3 4 2 3 4 10 11 13 11 7 3 2 3 3 2 1 1 2 1 2
7 8 4 5 9 8 10 14 13 11 16 17 13 17 17 14 9 12 17 17 18 17 15 13 13 11 9 4 4 3 3 3 2 6 9 14 13 12 9 5 2 1 1 4 2 1 0 1 2
11 10 7 8 1 8 5 4 6 8 6 10 8 16 16 19 16 14 18 18 17 16 16 15 14 12 9 8 3 0 3 2 2 2 3 6 13 12 11 7 5 3 2 1 2 1 1 1 1
11 11 13 14 6 5 10 4 5 13 12 8 9 8 17 18 18 17 18 18 19 18 15 15 14 12 12 8 7 5 4 4 4 4 4 5 12 10 11 10 7 5 3 1 1 1 1 1 2
15 5 7 14 6 2 3 3 6 8 7 16 13 11 17 19 19 19 21 22 20 17 16 15 13 13 13 12 9 7 4 4 4 4 6 4 4 10 10 10 8 6 3 3 2 2 1 2 1
8 0 7 4 3 0 9 5 3 8 23 19 15 17 17 16 19 19 19 19 19 16 15 13 14 13 11 11 9 10 9 6 4 4 5 4 4 4 6 8 7 7 4 5 4 2 1 1 2
4 7 3 4 3 6 4 4 8 13 9 19 19 18 18 13 18 18 18 17 16 18 16 13 15 14 10 11 8 8 8 8 8 7 5 5 4 4 6 5 5 4 6 6 6 5 4 3 2
5 9 6 6 3 5 3 5 7 9 17 17 21 16 16 15 16 18 20 18 18 19 17 15 16 14 13 11 10 8 8 6 5 6 5 6 6 5 5 6 6 7 8 7 6 4 4 5 4
6 3 9 5 2 3 4 6 9 7 8 7 11 8 15 19 16 17 15 17 18 19 19 19 16 15 14 14 11 11 9 8 8 7 6 6 6 6 7 7 7 8 6 7 7 5 6 5 5
11 5 2 3 3 5 6 4 6 6 13 7 14 11 6 16 11 10 12 12 16 18 18 17 16 18 15 15 12 11 13 9 7 6 8 7 8 7 6 8 7 7 9 7 7 5 5 6 5
1 2 1 6 6 6 3 6 9 13 8 10 8 12 14 16 16 15 13 7 7 7 14 17 15 15 13 14 13 12 11 11 8 8 7 7 7 7 8 7 7 7 8 7 7 7 7 7 6
9 12 8 5 6 4 5 7 7 5 14 10 6 9 11 12 15 7 7 5 7 12 8 16 15 14 15 14 12 13 10 10 10 12 9 7 8 7 8 7 8 8 9 8 8 8 7 8 7
Wind_Direction
149 86 359 53 56 21 308 35 148 149 70 65 77 89 94 38 119 167 137 145 143 143 149 144 143 138 136 132 130 131 128 125 121 119 119 120 115 117 116 112 119 117 115 108 113 117 112 112 116
143 79 53 62 65 357 296 27 78 101 126 107 82 66 46 68 58 114 111 144 140 138 138 141 145 140 138 137 133 131 131 129 126 123 120 118 115 113 112 118 123 124 118 118 113 110 110 118 111
90 18 71 67 52 266 312 332 103 127 140 101 107 100 82 108 119 154 136 139 134 129 138 149 143 140 140 138 135 133 132 129 129 123 123 120 121 115 117 125 124 124 124 115 109 106 99 98 97
78 33 49 64 318 269 247 303 69 98 83 90 104 71 59 122 115 133 141 139 131 137 145 146 143 139 137 137 134 132 132 131 133 130 132 126 123 118 123 134 130 128 127 121 122 114 96 68 118
67 64 49 350 277 267 282 291 139 96 106 93 103 93 59 45 117 127 139 140 135 135 151 145 141 136 135 133 134 134 130 134 136 136 135 133 125 120 128 131 132 131 130 129 137 146 140 225 243
56 123 89 224 276 303 302 292 111 100 108 107 93 101 61 121 133 140 137 142 138 134 136 135 140 136 133 132 135 133 135 139 139 145 138 134 131 127 134 137 137 137 138 145 147 165 268 291 313
163 118 95 308 233 281 250 287 156 135 140 112 129 109 131 144 135 141 138 130 132 124 122 132 141 139 136 133 136 136 138 138 143 139 140 140 134 136 140 148 143 148 154 162 160 216 298 313 317
113 72 346 254 198 257 235 291 154 144 110 131 138 153 166 164 134 121 122 132 129 129 123 127 117 118 132 140 138 140 138 140 140 139 142 137 139 140 148 148 153 164 176 179 193 243 277 295 300
95 87 254 247 188 245 8 354 143 129 138 155 148 135 145 147 130 128 120 121 122 146 145 151 156 145 140 136 148 148 145 141 134 130 131 120 136 148 154 158 171 189 215 215 228 251 266 273 286
89 114 218 319 241 249 102 339 114 122 121 112 111 112 137 140 139 141 150 151 150 156 168 161 165 166 155 138 142 143 137 133 124 124 121 115 125 171 163 182 192 207 240 249 251 264 275 277 268
150 150 115 266 246 236 102 350 150 124 140 148 145 147 152 150 152 154 158 162 166 161 165 173 163 171 157 156 152 134 145 153 147 124 107 138 179 263 195 181 200 229 256 267 291 302 282 269 264
126 141 163 323 246 324 72 339 343 5 168 154 151 154 158 163 165 165 169 172 170 174 167 162 154 149 163 165 165 167 170 166 152 154 198 217 231 213 207 202 209 235 253 260 261 272 283 290 277
108 154 170 275 132 108 131 191 235 297 147 154 152 158 164 167 172 176 172 170 161 162 159 162 151 154 165 173 169 186 184 170 160 180 208 195 152 176 204 176 246 245 257 274 280 267 281 279 280
161 158 140 42 154 191 172 212 194 259 154 156 161 169 172 169 177 169 173 171 170 165 167 162 160 162 162 186 201 202 186 177 178 187 182 171 168 166 139 183 224 251 245 304 296 262 248 279 272
116 109 66 77 270 154 165 181 194 148 160 163 173 177 175 177 173 178 180 179 170 170 168 171 162 166 171 196 203 210 199 205 228 219 247 133 119 155 122 186 220 212 42 9 315 260 224 297 339
86 48 58 183 199 189 138 229 217 182 136 175 187 180 180 180 184 179 178 179 177 161 175 176 176 171 177 200 207 200 216 220 230 223 234 186 178 152 156 198 247 163 89 135 241 206 22 354 71
22 180 232 311 195 154 187 246 226 200 167 200 196 206 165 176 184 181 180 177 177 171 173 181 182 179 180 196 216 211 231 222 225 220 220 179 203 196 164 92 130 355 102 269 273 31 13 80 88
203 216 180 234 200 214 178 259 303 175 223 220 193 210 166 167 185 181 185 181 175 172 178 186 176 182 187 190 196 208 223 241 243 231 212 200 186 194 226 125 160 318 41 228 61 3 279 188 172
265 284 190 269 181 160 216 237 248 161 216 234 242 197 177 182 172 177 182 180 176 170 176 188 173 187 184 169 172 188 201 201 251 224 224 200 183 204 221 150 149 319 255 274 177 165 354 348 64
242 246 198 290 223 177 177 241 231 188 209 219 195 183 180 179 169 161 170 174 177 179 181 188 192 183 188 175 194 171 161 210 187 210 223 217 189 192 206 183 180 308 198 270 311 87 321 333 26
252 204 187 199 222 256 87 299 183 210 186 223 181 182 178 179 178 172 168 177 181 181 186 188 192 188 187 180 171 165 66 51 100 225 223 220 213 188 203 202 166 208 161 234 260 95 32 22 326
274 193 217 207 155 211 161 249 251 195 211 236 211 183 184 187 185 170 172 178 186 190 190 191 183 190 190 167 179 175 174 177 216 192 198 192 205 214 197 207 173 186 199 241 336 67 119 98 353
244 272 171 208 191 332 166 116 274 138 221 229 228 216 190 191 186 181 177 183 188 182 188 191 183 188 191 180 178 185 187 209 194 184 186 200 217 216 215 207 201 193 184 194 242 332 58 107 104
207 204 20 65 119 141 237 154 235 185 220 222 226 225 202 184 187 186 181 180 184 181 176 179 185 189 188 187 180 182 193 196 174 187 186 201 222 225 215 219 205 209 198 184 203 228 258 204 188
110 71 338 333 345 221 259 99 231 216 212 202 206 221 210 187 187 182 181 184 180 182 183 176 181 190 193 192 187 186 195 194 188 190 199 194 202 219 218 207 219 206 208 202 190 203 204 222 210
183 149 158 197 224 270 322 227 254 223 202 194 198 205 208 193 192 187 185 186 179 184 183 181 181 192 193 198 200 195 197 199 196 186 191 206 203 208 196 208 210 217 213 207 190 198 202 196 218
226 167 192 160 100 64 251 289 316 245 258 187 186 168 194 193 183 190 183 185 182 184 187 187 185 191 195 200 201 204 204 198 200 203 194 197 207 211 214 217 208 211 205 200 193 199 213 203 222
168 162 104 7 207 248 283 272 233 216 231 210 159 165 202 189 156 162 173 175 185 187 189 186 188 192 194 200 200 205 212 213 200 195 206 206 211 214 211 213 221 208 207 197 190 203 215 204 225
24 217 61 130 140 177 231 259 220 221 157 171 188 168 149 149 156 167 176 173 168 176 189 188 186 193 192 200 204 204 206 216 215 213 212 215 225 219 217 219 214 208 209 199 195 208 214 207 225
186 203 167 135 246 211 172 262 308 220 179 169 159 154 131 162 150 128 137 129 184 181 187 188 188 194 198 199 197 206 206 208 217 224 222 207 220 232 233 224 216 216 214 210 200 209 215 213 216